Date String (YYYY-MM-DD hh:mm:ss) UTC,Instrument flags,Ambient pressure (hPa),Sample flow (lpm),Bypass flow (lpm),Sample temperature (°C),Ambient temperature (°C),ASC tube jacket temperature (°C),LED temperature (°C),Box temperature (°C),Sample RH (%),Span deviation,Mass concentration (μg/m³),Mass concentration (μg/m³),Mass concentration (μg/m³)
DateTimeUTC,F1_M11,P_M11,Q1_M11,Q2_M11,T1_M11,T2_M11,T3_M11,T4_M11,T5_M11,U1_M11,ZSPAN_M11,X0_M11,X2_M11,X1_M11
2021-10-10 14:00:00,,0824.1,5.00,0.00,27.0,26.1,00.0,36.0,28.8,12.9,0000.0,0003.69,0001.91,0001.70
2021-10-10 14:01:00,,0824.1,5.00,0.00,27.0,26.1,00.0,36.0,28.8,12.9,0000.0,0003.66,0001.87,0001.68
2021-10-10 14:02:00,,0824.1,5.00,0.00,27.0,26.1,00.0,36.0,28.8,12.9,0000.0,0003.80,0001.90,0001.69
2021-10-10 14:03:00,,0824.1,5.00,0.00,27.0,26.1,00.0,36.0,28.9,12.8,0000.0,0003.85,0001.91,0001.70
2021-10-10 14:04:00,,0824.2,5.00,0.00,27.0,26.1,00.0,36.0,28.9,12.8,0000.0,0003.86,0001.92,0001.71
2021-10-10 14:05:00,,0824.2,4.99,0.00,27.0,26.2,00.0,36.1,28.9,12.8,0000.0,0003.79,0001.90,0001.72
2021-10-10 14:06:00,,0824.2,5.00,0.00,27.0,26.2,00.0,36.1,28.9,12.8,0000.0,0004.48,0001.89,0001.72
2021-10-10 14:07:00,,0824.2,5.00,0.00,27.0,26.2,00.0,36.1,28.9,12.8,0000.0,0004.63,0001.89,0001.73
2021-10-10 14:08:00,,0824.2,5.00,0.00,27.1,26.2,00.0,36.1,28.9,12.8,0000.0,0004.72,0001.87,0001.73
2021-10-10 14:09:00,,0824.2,5.01,0.00,27.1,26.2,00.0,36.1,28.9,12.8,0000.0,0004.87,0001.89,0001.73
2021-10-10 14:10:00,,0824.2,5.00,0.00,27.1,26.2,00.0,36.1,28.9,12.8,0000.0,0004.13,0001.95,0001.74
2021-10-10 14:11:00,,0824.2,5.01,0.00,27.1,26.2,00.0,36.1,28.9,12.8,0000.0,0003.94,0001.94,0001.74
2021-10-10 14:12:00,,0824.3,5.00,0.00,27.1,26.2,00.0,36.1,28.9,12.8,0000.0,0003.89,0001.95,0001.75
2021-10-10 14:13:00,,0824.3,4.99,0.00,27.1,26.2,00.0,36.1,28.9,12.9,0000.0,0003.77,0001.92,0001.74
2021-10-10 14:14:00,,0824.3,5.00,0.00,27.1,26.2,00.0,36.1,29.0,13.1,0000.0,0003.76,0001.93,0001.75
2021-10-10 14:15:00,,0824.2,5.00,0.00,27.1,26.2,00.0,36.1,29.0,13.4,0000.0,0004.68,0001.92,0001.73
2021-10-10 14:16:00,,0824.3,4.99,0.00,27.1,26.2,00.0,36.2,29.0,13.7,0000.0,0006.07,0001.94,0001.73
2021-10-10 14:17:00,,0824.2,5.00,0.00,27.1,26.2,00.0,36.2,29.0,13.7,0000.0,0005.39,0001.99,0001.74
2021-10-10 14:18:00,,0824.2,4.99,0.00,27.1,26.2,00.0,36.2,29.0,13.7,0000.0,0005.41,0002.09,0001.75
2021-10-10 14:19:00,,0824.2,5.00,0.00,27.1,26.2,00.0,36.2,29.0,13.8,0000.0,0005.64,0002.17,0001.75
2021-10-10 14:20:00,,0824.1,4.98,0.00,27.1,26.2,00.0,36.2,29.0,13.9,0000.0,0006.47,0002.22,0001.74
2021-10-10 14:21:00,,0824.2,5.02,0.00,27.2,26.2,00.0,36.2,29.0,13.9,0000.0,0007.29,0002.23,0001.73
2021-10-10 14:22:00,,0824.2,4.99,0.00,27.2,26.3,00.0,36.2,29.0,13.9,0000.0,0008.45,0002.35,0001.75
2021-10-10 14:23:00,,0824.1,5.01,0.00,27.2,26.3,00.0,36.2,29.0,13.9,0000.0,0009.17,0002.53,0001.76
2021-10-10 14:24:00,,0824.1,5.00,0.00,27.2,26.3,00.0,36.2,29.0,14.0,0000.0,0009.33,0002.63,0001.77
2021-10-10 14:25:00,,0824.1,4.99,0.00,27.2,26.3,00.0,36.2,29.0,13.9,0000.0,0009.73,0002.69,0001.77
2021-10-10 14:26:00,,0824.2,5.00,0.00,27.2,26.3,00.0,36.2,29.0,13.8,0000.0,0009.86,0002.80,0001.79
2021-10-10 14:27:00,,0824.2,5.01,0.00,27.2,26.3,00.0,36.2,29.0,13.7,0000.0,0009.66,0002.92,0001.80
2021-10-10 14:28:00,,0824.2,5.00,0.00,27.2,26.3,00.0,36.2,29.0,13.8,0000.0,0009.83,0003.00,0001.82
2021-10-10 14:29:00,,0824.2,5.00,0.00,27.2,26.3,00.0,36.2,29.0,13.9,0000.0,0009.85,0003.03,0001.82
2021-10-10 14:30:00,,0824.2,5.00,0.00,27.2,26.3,00.0,36.2,29.0,13.8,0000.0,0010.53,0003.07,0001.84
2021-10-10 14:31:00,,0824.2,5.00,0.00,27.2,26.3,00.0,36.3,29.0,13.7,0000.0,0010.31,0003.08,0001.86
2021-10-10 14:32:00,,0824.3,5.00,0.00,27.2,26.3,00.0,36.3,29.1,13.7,0000.0,0010.19,0003.10,0001.88
2021-10-10 14:33:00,,0824.2,4.99,0.00,27.2,26.3,00.0,36.3,29.1,13.7,0000.0,0009.51,0003.10,0001.86
2021-10-10 14:34:00,,0824.2,5.00,0.00,27.2,26.3,00.0,36.3,29.1,13.8,0000.0,0009.11,0003.04,0001.86
2021-10-10 14:35:00,,0824.2,5.00,0.00,27.2,26.3,00.0,36.3,29.1,13.9,0000.0,0009.29,0003.09,0001.88
2021-10-10 14:36:00,,0824.2,5.00,0.00,27.2,26.3,00.0,36.3,29.1,13.9,0000.0,0009.02,0003.11,0001.89
2021-10-10 14:37:00,,0824.2,5.01,0.00,27.3,26.3,00.0,36.3,29.1,13.8,0000.0,0008.62,0003.08,0001.88
2021-10-10 14:38:00,,0824.2,5.01,0.00,27.3,26.3,00.0,36.3,29.1,13.7,0000.0,0008.25,0003.02,0001.87
2021-10-10 14:39:00,,0824.2,5.00,0.00,27.3,26.3,00.0,36.3,29.1,13.5,0000.0,0008.66,0002.97,0001.86
2021-10-10 14:40:00,,0824.2,4.99,0.00,27.3,26.4,00.0,36.3,29.1,13.4,0000.0,0009.05,0002.91,0001.85
2021-10-10 14:41:00,,0824.2,4.99,0.00,27.3,26.4,00.0,36.3,29.1,13.2,0000.0,0008.66,0002.88,0001.84
2021-10-10 14:42:00,,0824.2,5.00,0.00,27.3,26.4,00.0,36.3,29.1,13.2,0000.0,0008.54,0002.87,0001.83
2021-10-10 14:43:00,,0824.2,4.99,0.00,27.3,26.4,00.0,36.3,29.1,13.1,0000.0,0008.13,0002.82,0001.82
2021-10-10 14:44:00,,0824.3,5.00,0.00,27.3,26.4,00.0,36.3,29.1,13.3,0000.0,0008.41,0002.78,0001.83
2021-10-10 14:45:00,,0824.2,5.00,0.00,27.3,26.4,00.0,36.3,29.1,13.4,0000.0,0008.70,0002.73,0001.82
2021-10-10 14:46:00,,0824.3,4.99,0.00,27.3,26.4,00.0,36.4,29.1,13.7,0000.0,0008.48,0002.65,0001.80
2021-10-10 14:47:00,,0824.2,4.99,0.00,27.3,26.4,00.0,36.4,29.1,13.6,0000.0,0008.42,0002.61,0001.78
2021-10-10 14:48:00,,0824.4,5.00,0.00,27.3,26.4,00.0,36.4,29.1,13.6,0000.0,0008.48,0002.57,0001.77
2021-10-10 14:49:00,,0824.2,5.00,0.00,27.3,26.4,00.0,36.4,29.1,13.7,0000.0,0008.87,0002.55,0001.77
2021-10-10 14:50:00,,0824.3,5.00,0.00,27.3,26.4,00.0,36.4,29.1,13.7,0000.0,0008.13,0002.53,0001.76
2021-10-10 14:51:00,,0824.2,5.00,0.00,27.3,26.4,00.0,36.4,29.2,13.6,0000.0,0007.65,0002.52,0001.75
2021-10-10 14:52:00,,0824.2,5.01,0.00,27.3,26.4,00.0,36.4,29.1,13.7,0000.0,0007.24,0002.46,0001.73
2021-10-10 14:53:00,,0824.4,5.01,0.00,27.3,26.4,00.0,36.4,29.2,13.5,0000.0,0008.19,0002.42,0001.73
2021-10-10 14:54:00,,0824.4,5.00,0.00,27.3,26.4,00.0,36.4,29.2,13.4,0000.0,0008.37,0002.45,0001.72
2021-10-10 14:55:00,,0824.5,4.99,0.00,27.3,26.4,00.0,36.4,29.2,13.7,0000.0,0008.03,0002.40,0001.70
2021-10-10 14:56:00,,0824.2,5.01,0.00,27.4,26.5,00.0,36.4,29.2,13.8,0000.0,0007.34,0002.37,0001.69
2021-10-10 14:57:00,,0824.2,4.99,0.00,27.4,26.5,00.0,36.4,29.2,13.9,0000.0,0007.21,0002.33,0001.68
2021-10-10 14:58:00,,0824.2,4.99,0.00,27.4,26.5,00.0,36.4,29.2,14.1,0000.0,0007.05,0002.29,0001.67
2021-10-10 14:59:00,,0824.2,5.00,0.00,27.4,26.5,00.0,36.4,29.2,13.8,0000.0,0007.01,0002.29,0001.67
